Home   Weather   Faroe Islands   Tórshavn   Past weeks
Flag for Faroe Islands

Past Weather in Tórshavn, Faroe Islands — Yesterday and Last 2 Weeks

Currently: 52 °F. Low clouds. (Weather station: Soervaag / Vagar, Faroe Islands). See more current weather

Past Weather in Tórshavn — Graph

°F

Tórshavn Temperature Yesterday

Maximum temperature yesterday: 57 °F (at 5:50 pm)
Minimum temperature yesterday: 46 °F (at 4:20 am)
Average temperature yesterday: 52 °F

High & Low Weather Summary for the Past Weeks

 TemperatureHumidityPressure
High57 °F (Jun 24, 2:50 pm)100% (Jun 12, 11:50 pm)30.04 "Hg (Jun 12, 11:50 pm)
Low45 °F (Jun 21, 2:50 am)63% (Jun 16, 2:20 pm)29.21 "Hg (Jun 17, 8:20 pm)
Average50 °F93%29.68 "Hg
* Reported Jun 12 12:20 pm — Jun 27 12:20 pm, Tórshavn. Weather by CustomWeather, © 2022

Note: Actual official high and low records may vary slightly from our data, if they occured in-between our weather recording intervals... More about our weather records

Tórshavn Weather History for the Previous 24 Hours

Scroll right to see more
 ConditionsComfort  
Time TempWeatherWind HumidityBarometerVisibility
12:20 pm
Mon, Jun 27
52 °FLight rain. Low clouds.20 mph100%29.53 "Hg3 mi
11:50 am52 °FMostly cloudy.20 mph94%29.50 "HgN/A
11:20 am52 °FPartly sunny.18 mph94%29.53 "Hg6 mi
10:50 am52 °FLight rain. Overcast.17 mph94%29.53 "Hg5 mi
10:20 am52 °FLow clouds.15 mph94%29.53 "HgN/A
9:20 am52 °FDrizzle. Partly sunny.17 mph94%29.53 "Hg5 mi
8:20 am52 °FLow clouds.17 mph94%29.50 "Hg5 mi
7:50 am52 °FLow clouds.20 mph94%29.50 "Hg5 mi
7:20 am52 °FLow clouds.18 mph94%29.50 "Hg5 mi
6:50 am52 °FLight rain. Low clouds.21 mph94%29.50 "Hg5 mi
6:20 am52 °FLow clouds.23 mph94%29.50 "Hg6 mi
5:50 am52 °FLow clouds.23 mph94%29.53 "Hg5 mi
5:20 am52 °FLow clouds.23 mph94%29.53 "Hg6 mi
4:50 am52 °FLow clouds.22 mph94%29.53 "Hg6 mi
4:20 am52 °FLow clouds.23 mph94%29.53 "Hg6 mi
3:50 am52 °FLow clouds.21 mph94%29.56 "HgN/A
3:20 am52 °FLow clouds.22 mph94%29.56 "HgN/A
2:50 am52 °FLow clouds.22 mph94%29.56 "HgN/A
2:20 am52 °FLow clouds.21 mph94%29.56 "HgN/A
1:50 am52 °FLow clouds.20 mph94%29.59 "HgN/A
12:20 am52 °FLow clouds.17 mph94%29.59 "HgN/A
11:50 pm
Sun, Jun 26
52 °FPassing clouds.17 mph94%29.59 "HgN/A
11:20 pm52 °FPartly sunny.17 mph88%29.62 "HgN/A
10:50 pm52 °FPartly sunny.16 mph88%29.62 "HgN/A
10:20 pm54 °FPartly sunny.15 mph82%29.62 "HgN/A
9:50 pm54 °FPartly sunny.16 mph82%29.65 "HgN/A
9:20 pm54 °FOvercast.14 mph88%29.65 "HgN/A
8:50 pm54 °FOvercast.16 mph88%29.65 "HgN/A
8:20 pm54 °FLow clouds.20 mph88%29.65 "HgN/A
7:50 pm54 °FLow clouds.18 mph88%29.65 "HgN/A
6:50 pm54 °FLow clouds.16 mph88%29.68 "HgN/A
6:20 pm54 °FPartly sunny.20 mph88%29.68 "HgN/A
5:50 pm57 °FPartly sunny.21 mph82%29.68 "HgN/A
5:20 pm55 °FPartly sunny.16 mph82%29.68 "HgN/A
4:50 pm55 °FPartly sunny.17 mph88%29.68 "HgN/A
4:20 pm55 °FScattered clouds.18 mph88%29.71 "HgN/A
3:20 pm54 °FBroken clouds.17 mph88%29.71 "HgN/A
2:50 pm55 °FPartly sunny.18 mph88%29.71 "HgN/A
2:20 pm55 °FPartly sunny.18 mph88%29.71 "HgN/A
1:50 pm54 °FPartly sunny.17 mph94%29.71 "HgN/A
1:20 pm54 °FPartly sunny.17 mph94%29.71 "HgN/A
Weather by CustomWeather, © 2022

See weather overview